Time,TemperatureF,DewpointF,PressureIn,WindDirection,WindDirectionDegrees,WindSpeedMPH,WindSpeedGustMPH,Humidity,HourlyPrecipIn,Conditions,Clouds,dailyrainin,SoftwareType,DateUTC
2013-03-07 00:01:00,51.0,24.0,29.82,SE,126,1.0,-999.0,34,-99.99,,,-99.99,,2013-03-07 07:01:00,
2013-03-07 00:11:00,51.0,24.0,29.82,SE,126,1.0,-999.0,34,-99.99,,,-99.99,,2013-03-07 07:11:00,
2013-03-07 00:21:00,51.0,23.0,29.82,NE,43,0.0,-999.0,33,-99.99,,,-99.99,,2013-03-07 07:21:00,
2013-03-07 00:31:00,51.0,23.0,29.82,NNW,332,1.0,-999.0,33,-99.99,,,-99.99,,2013-03-07 07:31:00,
2013-03-07 00:42:00,51.0,23.0,29.82,NNW,332,1.0,-999.0,33,-99.99,,,-99.99,,2013-03-07 07:42:00,
2013-03-07 00:52:00,50.0,24.0,29.83,West,275,0.0,-999.0,36,-99.99,,,-99.99,,2013-03-07 07:52:00,
2013-03-07 01:01:00,49.0,24.0,29.82,West,262,2.0,-999.0,37,-99.99,,,-99.99,,2013-03-07 08:01:00,
2013-03-07 01:11:00,49.0,24.0,29.82,West,262,2.0,-999.0,37,-99.99,,,-99.99,,2013-03-07 08:11:00,
2013-03-07 01:22:00,49.0,24.0,29.82,WNW,290,4.0,-999.0,37,-99.99,,,-99.99,,2013-03-07 08:22:00,
2013-03-07 01:32:00,50.0,23.0,29.82,West,269,3.0,-999.0,35,-99.99,,,-99.99,,2013-03-07 08:32:00,
2013-03-07 01:43:00,50.0,23.0,29.82,West,269,3.0,-999.0,35,-99.99,,,-99.99,,2013-03-07 08:43:00,
2013-03-07 01:52:00,52.0,24.0,29.82,NW,309,5.0,-999.0,33,-99.99,,,-99.99,,2013-03-07 08:52:00,
2013-03-07 02:02:00,51.0,24.0,29.82,NW,305,1.0,-999.0,34,-99.99,,,-99.99,,2013-03-07 09:02:00,
2013-03-07 02:12:00,51.0,24.0,29.82,NW,305,1.0,-999.0,34,-99.99,,,-99.99,,2013-03-07 09:12:00,
2013-03-07 02:22:00,51.0,24.0,29.82,NW,305,0.0,-999.0,35,-99.99,,,-99.99,,2013-03-07 09:22:00,
2013-03-07 02:32:00,49.0,25.0,29.82,NW,304,1.0,-999.0,38,-99.99,,,-99.99,,2013-03-07 09:32:00,
2013-03-07 02:42:00,49.0,25.0,29.82,NW,304,1.0,-999.0,38,-99.99,,,-99.99,,2013-03-07 09:42:00,
2013-03-07 02:51:00,46.0,24.0,29.82,NW,304,0.0,-999.0,42,-99.99,,,-99.99,,2013-03-07 09:51:00,
2013-03-07 03:02:00,46.0,24.0,29.81,NW,304,1.0,-999.0,42,-99.99,,,-99.99,,2013-03-07 10:02:00,
2013-03-07 03:12:00,46.0,24.0,29.81,NW,304,1.0,-999.0,42,-99.99,,,-99.99,,2013-03-07 10:12:00,
2013-03-07 03:21:00,47.0,25.0,29.80,WSW,255,1.0,-999.0,42,-99.99,,,-99.99,,2013-03-07 10:21:00,
2013-03-07 03:32:00,46.0,25.0,29.80,WSW,252,2.0,-999.0,44,-99.99,,,-99.99,,2013-03-07 10:32:00,
2013-03-07 03:42:00,46.0,25.0,29.80,WSW,252,2.0,-999.0,44,-99.99,,,-99.99,,2013-03-07 10:42:00,
2013-03-07 03:52:00,45.0,25.0,29.80,WSW,252,0.0,-999.0,46,-99.99,,,-99.99,,2013-03-07 10:52:00,
2013-03-07 04:02:00,44.0,26.0,29.79,WSW,253,1.0,-999.0,48,-99.99,,,-99.99,,2013-03-07 11:02:00,
2013-03-07 04:11:00,44.0,26.0,29.79,WSW,253,1.0,-999.0,48,-99.99,,,-99.99,,2013-03-07 11:11:00,
2013-03-07 04:22:00,44.0,26.0,29.79,SW,234,0.0,-999.0,49,-99.99,,,-99.99,,2013-03-07 11:22:00,
2013-03-07 04:32:00,43.0,26.0,29.80,SW,234,1.0,-999.0,50,-99.99,,,-99.99,,2013-03-07 11:32:00,
2013-03-07 04:42:00,43.0,26.0,29.80,SW,234,1.0,-999.0,50,-99.99,,,-99.99,,2013-03-07 11:42:00,
2013-03-07 04:52:00,42.0,26.0,29.80,SW,234,0.0,-999.0,52,-99.99,,,-99.99,,2013-03-07 11:52:00,
2013-03-07 05:02:00,42.0,26.0,29.81,SW,234,1.0,-999.0,52,-99.99,,,-99.99,,2013-03-07 12:02:00,
2013-03-07 05:11:00,42.0,26.0,29.81,SW,234,1.0,-999.0,52,-99.99,,,-99.99,,2013-03-07 12:11:00,
2013-03-07 05:21:00,43.0,25.0,29.80,SW,234,0.0,-999.0,49,-99.99,,,-99.99,,2013-03-07 12:21:00,
2013-03-07 05:32:00,44.0,25.0,29.81,SW,234,1.0,-999.0,47,-99.99,,,-99.99,,2013-03-07 12:32:00,
2013-03-07 05:42:00,44.0,25.0,29.81,SW,234,1.0,-999.0,47,-99.99,,,-99.99,,2013-03-07 12:42:00,
2013-03-07 05:51:00,47.0,25.0,29.81,SW,234,0.0,-999.0,42,-99.99,,,-99.99,,2013-03-07 12:51:00,
2013-03-07 06:02:00,44.0,25.0,29.81,WSW,237,0.0,-999.0,47,-99.99,,,-99.99,,2013-03-07 13:02:00,
2013-03-07 06:22:00,45.0,25.0,29.82,WSW,241,1.0,-999.0,45,-99.99,,,-99.99,,2013-03-07 13:22:00,
2013-03-07 06:32:00,46.0,26.0,29.82,WSW,241,0.0,-999.0,45,-99.99,,,-99.99,,2013-03-07 13:32:00,
2013-03-07 06:42:00,46.0,26.0,29.82,WSW,241,0.0,-999.0,45,-99.99,,,-99.99,,2013-03-07 13:42:00,
2013-03-07 06:52:00,45.0,25.0,29.83,WSW,244,0.0,-999.0,46,-99.99,,,-99.99,,2013-03-07 13:52:00,
2013-03-07 07:01:00,43.0,26.0,29.84,WSW,244,0.0,-999.0,50,-99.99,,,-99.99,,2013-03-07 14:01:00,
2013-03-07 07:11:00,43.0,26.0,29.84,WSW,244,0.0,-999.0,50,-99.99,,,-99.99,,2013-03-07 14:11:00,
2013-03-07 07:21:00,42.0,26.0,29.84,WSW,244,1.0,-999.0,52,-99.99,,,-99.99,,2013-03-07 14:21:00,
2013-03-07 07:32:00,43.0,26.0,29.84,WSW,244,1.0,-999.0,50,-99.99,,,-99.99,,2013-03-07 14:32:00,
2013-03-07 07:42:00,43.0,26.0,29.84,WSW,244,1.0,-999.0,50,-99.99,,,-99.99,,2013-03-07 14:42:00,
2013-03-07 07:52:00,46.0,26.0,29.85,West,261,1.0,-999.0,46,-99.99,,,-99.99,,2013-03-07 14:52:00,
2013-03-07 08:02:00,50.0,23.0,29.86,West,261,0.0,-999.0,35,-99.99,,,-99.99,,2013-03-07 15:02:00,
2013-03-07 08:11:00,50.0,23.0,29.86,West,261,0.0,-999.0,35,-99.99,,,-99.99,,2013-03-07 15:11:00,
2013-03-07 08:21:00,52.0,24.0,29.86,NNW,338,1.0,-999.0,33,-99.99,,,-99.99,,2013-03-07 15:21:00,
2013-03-07 08:32:00,54.0,24.0,29.87,NNW,337,0.0,-999.0,31,-99.99,,,-99.99,,2013-03-07 15:32:00,
2013-03-07 08:42:00,54.0,24.0,29.87,NNW,337,0.0,-999.0,31,-99.99,,,-99.99,,2013-03-07 15:42:00,
2013-03-07 08:52:00,55.0,23.0,29.87,North,360,0.0,-999.0,28,-99.99,,,-99.99,,2013-03-07 15:52:00,
2013-03-07 09:01:00,56.0,23.0,29.87,North,5,0.0,-999.0,28,-99.99,,,-99.99,,2013-03-07 16:01:00,
2013-03-07 09:12:00,56.0,23.0,29.87,North,5,0.0,-999.0,28,-99.99,,,-99.99,,2013-03-07 16:12:00,
2013-03-07 09:22:00,57.0,22.0,29.87,NNE,28,0.0,-999.0,25,-99.99,,,-99.99,,2013-03-07 16:22:00,
2013-03-07 09:32:00,58.0,23.0,29.87,SE,134,1.0,-999.0,26,-99.99,,,-99.99,,2013-03-07 16:32:00,
2013-03-07 09:42:00,58.0,23.0,29.87,SE,134,1.0,-999.0,26,-99.99,,,-99.99,,2013-03-07 16:42:00,
2013-03-07 09:52:00,61.0,24.0,29.87,South,182,0.0,-999.0,24,-99.99,,,-99.99,,2013-03-07 16:52:00,
2013-03-07 10:01:00,62.0,22.0,29.86,NNE,30,0.0,-999.0,21,-99.99,,,-99.99,,2013-03-07 17:01:00,
2013-03-07 10:11:00,62.0,22.0,29.86,NNE,30,0.0,-999.0,21,-99.99,,,-99.99,,2013-03-07 17:11:00,
2013-03-07 10:21:00,64.0,21.0,29.87,NNE,16,2.0,-999.0,19,-99.99,,,-99.99,,2013-03-07 17:21:00,
2013-03-07 10:32:00,64.0,23.0,29.86,WNW,303,1.0,-999.0,21,-99.99,,,-99.99,,2013-03-07 17:32:00,
2013-03-07 10:42:00,64.0,23.0,29.86,WNW,303,1.0,-999.0,21,-99.99,,,-99.99,,2013-03-07 17:42:00,
2013-03-07 10:52:00,64.0,21.0,29.86,ENE,63,1.0,-999.0,19,-99.99,,,-99.99,,2013-03-07 17:52:00,
2013-03-07 11:02:00,65.0,18.0,29.86,West,260,3.0,-999.0,16,-99.99,,,-99.99,,2013-03-07 18:02:00,
2013-03-07 11:11:00,65.0,18.0,29.86,West,260,3.0,-999.0,16,-99.99,,,-99.99,,2013-03-07 18:11:00,
2013-03-07 11:21:00,65.0,18.0,29.86,West,260,3.0,-999.0,16,-99.99,,,-99.99,,2013-03-07 18:21:00,
2013-03-07 11:32:00,66.0,25.0,29.86,West,265,7.0,-999.0,21,-99.99,,,-99.99,,2013-03-07 18:32:00,
2013-03-07 11:42:00,66.0,25.0,29.86,West,265,7.0,-999.0,21,-99.99,,,-99.99,,2013-03-07 18:42:00,
2013-03-07 11:52:00,66.0,24.0,29.86,WNW,301,6.0,-999.0,20,-99.99,,,-99.99,,2013-03-07 18:52:00,
2013-03-07 12:02:00,66.0,24.0,29.86,SW,215,9.0,-999.0,20,-99.99,,,-99.99,,2013-03-07 19:02:00,
2013-03-07 12:11:00,66.0,24.0,29.86,SW,215,9.0,-999.0,20,-99.99,,,-99.99,,2013-03-07 19:11:00,
2013-03-07 12:22:00,67.0,23.0,29.86,WSW,254,8.0,-999.0,19,-99.99,,,-99.99,,2013-03-07 19:22:00,
2013-03-07 12:33:00,67.0,25.0,29.86,SW,218,11.0,-999.0,20,-99.99,,,-99.99,,2013-03-07 19:33:00,
2013-03-07 12:43:00,67.0,25.0,29.86,SW,218,11.0,-999.0,20,-99.99,,,-99.99,,2013-03-07 19:43:00,
2013-03-07 12:52:00,67.0,21.0,29.85,SW,219,6.0,-999.0,17,-99.99,,,-99.99,,2013-03-07 19:52:00,
2013-03-07 13:01:00,68.0,22.0,29.85,South,190,9.0,-999.0,17,-99.99,,,-99.99,,2013-03-07 20:01:00,
2013-03-07 13:12:00,68.0,22.0,29.85,South,190,9.0,-999.0,17,-99.99,,,-99.99,,2013-03-07 20:12:00,
2013-03-07 13:21:00,67.0,21.0,29.85,WSW,254,10.0,-999.0,17,-99.99,,,-99.99,,2013-03-07 20:21:00,
2013-03-07 13:32:00,67.0,21.0,29.84,SW,234,7.0,-999.0,17,-99.99,,,-99.99,,2013-03-07 20:32:00,
2013-03-07 13:42:00,67.0,21.0,29.84,SW,234,7.0,-999.0,17,-99.99,,,-99.99,,2013-03-07 20:42:00,
2013-03-07 13:52:00,68.0,20.0,29.83,WNW,299,10.0,-999.0,16,-99.99,,,-99.99,,2013-03-07 20:52:00,
2013-03-07 14:02:00,68.0,19.0,29.83,West,274,9.0,-999.0,15,-99.99,,,-99.99,,2013-03-07 21:02:00,
2013-03-07 14:11:00,68.0,19.0,29.83,West,274,9.0,-999.0,15,-99.99,,,-99.99,,2013-03-07 21:11:00,
2013-03-07 14:21:00,69.0,18.0,29.82,WNW,294,9.0,-999.0,14,-99.99,,,-99.99,,2013-03-07 21:21:00,
2013-03-07 14:32:00,69.0,19.0,29.82,West,272,4.0,-999.0,15,-99.99,,,-99.99,,2013-03-07 21:32:00,
2013-03-07 14:42:00,69.0,19.0,29.82,West,272,4.0,-999.0,15,-99.99,,,-99.99,,2013-03-07 21:42:00,
2013-03-07 14:52:00,69.0,19.0,29.82,SW,224,7.0,-999.0,15,-99.99,,,-99.99,,2013-03-07 21:52:00,
2013-03-07 15:01:00,69.0,19.0,29.82,SW,224,7.0,-999.0,15,-99.99,,,-99.99,,2013-03-07 22:01:00,
2013-03-07 15:11:00,69.0,19.0,29.82,SW,224,7.0,-999.0,15,-99.99,,,-99.99,,2013-03-07 22:11:00,
2013-03-07 15:21:00,68.0,20.0,29.80,WNW,286,7.0,-999.0,16,-99.99,,,-99.99,,2013-03-07 22:21:00,
2013-03-07 15:32:00,68.0,22.0,29.80,South,173,5.0,-999.0,17,-99.99,,,-99.99,,2013-03-07 22:32:00,
2013-03-07 15:42:00,68.0,22.0,29.80,South,173,5.0,-999.0,17,-99.99,,,-99.99,,2013-03-07 22:42:00,
2013-03-07 15:52:00,68.0,20.0,29.80,SSE,167,6.0,-999.0,16,-99.99,,,-99.99,,2013-03-07 22:52:00,
2013-03-07 16:02:00,68.0,20.0,29.80,SSE,167,6.0,-999.0,16,-99.99,,,-99.99,,2013-03-07 23:02:00,
2013-03-07 16:12:00,68.0,20.0,29.80,SSE,167,6.0,-999.0,16,-99.99,,,-99.99,,2013-03-07 23:12:00,
2013-03-07 16:21:00,68.0,20.0,29.80,SSE,167,6.0,-999.0,16,-99.99,,,-99.99,,2013-03-07 23:21:00,
2013-03-07 16:34:00,67.0,22.0,29.82,SSE,156,4.0,-999.0,18,-99.99,,,-99.99,,2013-03-07 23:34:00,
2013-03-07 16:44:00,67.0,22.0,29.82,SSE,156,4.0,-999.0,18,-99.99,,,-99.99,,2013-03-07 23:44:00,
2013-03-07 16:53:00,66.0,20.0,29.82,West,263,8.0,-999.0,17,-99.99,,,-99.99,,2013-03-07 23:53:00,
2013-03-07 17:02:00,65.0,18.0,29.82,SSW,205,10.0,-999.0,16,-99.99,,,-99.99,,2013-03-08 00:02:00,
2013-03-07 17:12:00,65.0,18.0,29.82,SSW,205,10.0,-999.0,16,-99.99,,,-99.99,,2013-03-08 00:12:00,
2013-03-07 17:22:00,65.0,18.0,29.82,SSW,200,7.0,-999.0,16,-99.99,,,-99.99,,2013-03-08 00:22:00,
2013-03-07 17:32:00,64.0,18.0,29.82,West,262,5.0,-999.0,17,-99.99,,,-99.99,,2013-03-08 00:32:00,
2013-03-07 17:43:00,64.0,18.0,29.82,West,262,5.0,-999.0,17,-99.99,,,-99.99,,2013-03-08 00:43:00,
2013-03-07 17:52:00,63.0,18.0,29.82,WNW,302,3.0,-999.0,17,-99.99,,,-99.99,,2013-03-08 00:52:00,
2013-03-07 18:01:00,63.0,19.0,29.83,West,271,3.0,-999.0,18,-99.99,,,-99.99,,2013-03-08 01:01:00,
2013-03-07 18:11:00,63.0,19.0,29.83,West,271,3.0,-999.0,18,-99.99,,,-99.99,,2013-03-08 01:11:00,
2013-03-07 18:21:00,62.0,19.0,29.83,SSW,209,3.0,-999.0,19,-99.99,,,-99.99,,2013-03-08 01:21:00,
2013-03-07 18:32:00,62.0,20.0,29.83,West,264,1.0,-999.0,20,-99.99,,,-99.99,,2013-03-08 01:32:00,
2013-03-07 18:42:00,62.0,20.0,29.83,West,264,1.0,-999.0,20,-99.99,,,-99.99,,2013-03-08 01:42:00,
2013-03-07 18:51:00,61.0,20.0,29.83,WNW,290,3.0,-999.0,20,-99.99,,,-99.99,,2013-03-08 01:51:00,
2013-03-07 19:01:00,60.0,21.0,29.83,WNW,290,0.0,-999.0,22,-99.99,,,-99.99,,2013-03-08 02:01:00,
2013-03-07 19:11:00,60.0,20.0,29.84,WNW,290,0.0,-999.0,21,-99.99,,,-99.99,,2013-03-08 02:11:00,
2013-03-07 19:21:00,60.0,20.0,29.84,WNW,290,0.0,-999.0,21,-99.99,,,-99.99,,2013-03-08 02:21:00,
2013-03-07 19:31:00,56.0,22.0,29.84,WNW,290,0.0,-999.0,26,-99.99,,,-99.99,,2013-03-08 02:31:00,
2013-03-07 19:41:00,56.0,22.0,29.84,WNW,290,0.0,-999.0,26,-99.99,,,-99.99,,2013-03-08 02:41:00,
2013-03-07 19:52:00,55.0,21.0,29.85,WNW,290,0.0,-999.0,26,-99.99,,,-99.99,,2013-03-08 02:52:00,
2013-03-07 20:01:00,55.0,21.0,29.85,WNW,290,0.0,-999.0,26,-99.99,,,-99.99,,2013-03-08 03:01:00,
2013-03-07 20:11:00,55.0,21.0,29.85,WNW,290,0.0,-999.0,26,-99.99,,,-99.99,,2013-03-08 03:11:00,
2013-03-07 20:21:00,53.0,20.0,29.86,WNW,290,0.0,-999.0,27,-99.99,,,-99.99,,2013-03-08 03:21:00,
2013-03-07 20:32:00,54.0,20.0,29.86,WNW,286,1.0,-999.0,26,-99.99,,,-99.99,,2013-03-08 03:32:00,
2013-03-07 20:42:00,54.0,20.0,29.86,WNW,286,1.0,-999.0,26,-99.99,,,-99.99,,2013-03-08 03:42:00,
2013-03-07 20:52:00,54.0,21.0,29.86,WSW,238,1.0,-999.0,27,-99.99,,,-99.99,,2013-03-08 03:52:00,
2013-03-07 21:01:00,56.0,20.0,29.86,WSW,238,1.0,-999.0,24,-99.99,,,-99.99,,2013-03-08 04:01:00,
2013-03-07 21:11:00,56.0,20.0,29.86,WSW,238,1.0,-999.0,24,-99.99,,,-99.99,,2013-03-08 04:11:00,
2013-03-07 21:21:00,52.0,20.0,29.87,WSW,238,1.0,-999.0,28,-99.99,,,-99.99,,2013-03-08 04:21:00,
2013-03-07 21:31:00,53.0,20.0,29.87,WSW,237,1.0,-999.0,27,-99.99,,,-99.99,,2013-03-08 04:31:00,
2013-03-07 21:42:00,53.0,20.0,29.87,WSW,237,1.0,-999.0,27,-99.99,,,-99.99,,2013-03-08 04:42:00,
2013-03-07 21:51:00,55.0,21.0,29.86,SW,215,1.0,-999.0,26,-99.99,,,-99.99,,2013-03-08 04:51:00,
2013-03-07 22:01:00,54.0,20.0,29.86,SW,214,0.0,-999.0,26,-99.99,,,-99.99,,2013-03-08 05:01:00,
2013-03-07 22:12:00,54.0,20.0,29.86,SW,214,0.0,-999.0,26,-99.99,,,-99.99,,2013-03-08 05:12:00,
2013-03-07 22:22:00,55.0,21.0,29.86,SSW,196,1.0,-999.0,26,-99.99,,,-99.99,,2013-03-08 05:22:00,
2013-03-07 22:32:00,53.0,21.0,29.86,SSW,196,0.0,-999.0,28,-99.99,,,-99.99,,2013-03-08 05:32:00,
2013-03-07 22:42:00,53.0,21.0,29.86,SSW,196,0.0,-999.0,28,-99.99,,,-99.99,,2013-03-08 05:42:00,
2013-03-07 22:52:00,53.0,21.0,29.85,SSW,196,0.0,-999.0,28,-99.99,,,-99.99,,2013-03-08 05:52:00,
2013-03-07 23:01:00,53.0,21.0,29.85,SSW,196,0.0,-999.0,28,-99.99,,,-99.99,,2013-03-08 06:01:00,
2013-03-07 23:11:00,53.0,21.0,29.85,SSW,196,0.0,-999.0,28,-99.99,,,-99.99,,2013-03-08 06:11:00,
2013-03-07 23:21:00,50.0,21.0,29.85,SSW,196,0.0,-999.0,32,-99.99,,,-99.99,,2013-03-08 06:21:00,
2013-03-07 23:32:00,54.0,22.0,29.85,SSE,150,0.0,-999.0,28,-99.99,,,-99.99,,2013-03-08 06:32:00,
2013-03-07 23:42:00,54.0,22.0,29.85,SSE,150,0.0,-999.0,28,-99.99,,,-99.99,,2013-03-08 06:42:00,
2013-03-07 23:51:00,54.0,22.0,29.85,SSE,150,0.0,-999.0,28,-99.99,,,-99.99,,2013-03-08 06:51:00,